Weather in Alexandrovka

Ukraine / Mykolaiv District     47°27′43″N   30°55′29″E
temp.,
°C
wind,
m/s
gust,
m/s
humid.,
%
clouds,
%
prec.,
mm/h
press.,
hPa
HPBL,
m
17 october, sun
sun1700:00+11n3652100 0.1 1018217
03:00+11n5861100 0.1 1018302
06:00+10n4874100 0.0 1018304
09:00+10n5873100 0.0 1019351
12:00+12n566699 0.0 1020677
15:00+15n455418 0.0 10181142
18:00+12nnw47585 0.0 1019144
21:00+9nnw356541 0.0 102085
18 october, mon
mon1800:00+7nnw3570100 0.0 102182
03:00+6nnw35745 0.0 102180
06:00+5nnw34765 0.0 102160
09:00+7nnw356620 0.0 1022201
12:00+11nw455193 0.0 1022890
15:00+13nw574252 0.0 10211377
18:00+10nw3350100 0.0 102121
21:00+10wnw3655100 0.0 1022116
19 october, tue
tue1900:00+8nw496457 0.0 1023230
03:00+9wnw5106422 0.0 1022612
06:00+7wnw6128196 0.0 1023420
09:00+8nw6107265 0.0 1025785
12:00+11nnw78395 0.0 10261503
15:00+12nnw67305 0.0 10261773
18:00+9nnw33375 0.0 102736
21:00+7nw22405 0.0 102810
20 october, wed
wed2000:00+6w1143100 0.0 102910
03:00+5w22455 0.0 102915
06:00+5wsw2244100 0.0 102912
09:00+7sw234129 0.0 1029104
12:00+12ssw45355 0.0 1028733
15:00+15sw55375 0.0 10261251
18:00+11s48525 0.0 1025159
21:00+10s61372100 0.0 1024339
21 october, thu
thu2100:00+9s6148143 0.0 1024376
03:00+10s715915 0.0 1023447
06:00+9ssw7158869 0.0 1022454
09:00+11ssw714785 0.0 1021612
12:00+16ssw912546 0.0 1020993
15:00+17ssw10125192 0.0 10181113
18:00+13s8146991 0.0 1017556
21:00+12s81582100 0.0 1016453